| time (UTC) | temp F | wind direction | speed MPH | gust MPH | rain 1hr in | rain 24hr in | rain mn in | humidity % | barometer mb |
| 20260506224050 | 65 | 15 | 4.0 | 11.0 | 0.00 | 0.00 | 0.00 | 79 | 1012.6 |
| 20260506223550 | 65 | 286 | 4.0 | 12.0 | 0.00 | 0.00 | 0.00 | 79 | 1012.6 |
| 20260506223058 | 64 | 281 | 5.0 | 12.0 | 0.00 | 0.00 | 0.00 | 80 | 1012.3 |
| 20260506222554 | 64 | 306 | 4.0 | 11.0 | 0.00 | 0.00 | 0.00 | 80 | 1012.3 |
| 20260506222050 | 65 | 305 | 3.0 | 11.0 | 0.00 | 0.00 | 0.00 | 80 | 1012.4 |
| 20260506221601 | 64 | 288 | 5.0 | 11.0 | 0.00 | 0.00 | 0.00 | 79 | 1012.4 |
| 20260506221050 | 65 | 297 | 3.0 | 13.0 | 0.00 | 0.00 | 0.00 | 79 | 1012.3 |
| 20260506220550 | 66 | 350 | 4.0 | 13.0 | 0.00 | 0.00 | 0.00 | 77 | 1012.3 |
| 20260506220053 | 67 | 311 | 3.0 | 11.0 | 0.00 | 0.00 | 0.00 | 77 | 1012.3 |
| 20260506215546 | 68 | 275 | 4.0 | 11.0 | 0.00 | 0.00 | 0.00 | 75 | 1012.3 |
| 20260506215049 | 69 | 60 | 3.0 | 13.0 | 0.00 | 0.00 | 0.00 | 74 | 1012.3 |
| 20260506214548 | 68 | 317 | 5.0 | 13.0 | 0.00 | 0.00 | 0.00 | 75 | 1012.3 |
| 20260506214050 | 68 | 352 | 4.0 | 10.0 | 0.00 | 0.00 | 0.00 | 74 | 1012.2 |
| 20260506213555 | 71 | 311 | 3.0 | 13.0 | 0.00 | 0.00 | 0.00 | 71 | 1012.0 |
| 20260506213055 | 71 | 315 | 3.0 | 13.0 | 0.00 | 0.00 | 0.00 | 72 | 1012.0 |
| 20260506212550 | 72 | 248 | 4.0 | 13.0 | 0.00 | 0.00 | 0.00 | 73 | 1011.9 |
| 20260506212050 | 71 | 328 | 3.0 | 12.0 | 0.00 | 0.00 | 0.00 | 72 | 1012.1 |
| 20260506211553 | 71 | 5 | 5.0 | 13.0 | 0.00 | 0.00 | 0.00 | 73 | 1012.0 |
| 20260506211051 | 72 | 271 | 5.0 | 13.0 | 0.00 | 0.00 | 0.00 | 70 | 1012.1 |
| 20260506210550 | 72 | 342 | 6.0 | 13.0 | 0.00 | 0.00 | 0.00 | 71 | 1012.0 |
| 20260506210057 | 73 | 294 | 5.0 | 16.0 | 0.00 | 0.00 | 0.00 | 71 | 1012.1 |
| 20260506205549 | 73 | 16 | 6.0 | 16.0 | 0.00 | 0.00 | 0.00 | 71 | 1012.0 |
| 20260506205050 | 73 | 15 | 6.0 | 15.0 | 0.00 | 0.00 | 0.00 | 73 | 1011.8 |
| 20260506204559 | 72 | 62 | 6.0 | 15.0 | 0.00 | 0.00 | 0.00 | 72 | 1011.9 |
| 20260506204049 | 73 | 335 | 6.0 | 13.0 | 0.00 | 0.00 | 0.00 | 72 | 1012.0 |
| 20260506203550 | 73 | 355 | 6.0 | 14.0 | 0.00 | 0.00 | 0.00 | 70 | 1012.0 |
| 20260506203056 | 74 | 296 | 5.0 | 14.0 | 0.00 | 0.00 | 0.00 | 70 | 1012.0 |
| 20260506202550 | 75 | 249 | 4.0 | 11.0 | 0.00 | 0.00 | 0.00 | 71 | 1011.9 |
| 20260506202048 | 76 | 305 | 2.0 | 12.0 | 0.00 | 0.00 | 0.00 | 71 | 1011.9 |
| 20260506201553 | 74 | 315 | 4.0 | 12.0 | 0.00 | 0.00 | 0.00 | 72 | 1012.0 |
| 20260506201048 | 74 | 94 | 5.0 | 15.0 | 0.00 | 0.00 | 0.00 | 73 | 1012.2 |
| 20260506200550 | 74 | 320 | 7.0 | 15.0 | 0.00 | 0.00 | 0.00 | 72 | 1012.2 |
| 20260506200054 | 74 | 296 | 7.0 | 14.0 | 0.00 | 0.00 | 0.00 | 73 | 1012.1 |
| 20260506195550 | 73 | 5 | 4.0 | 13.0 | 0.00 | 0.00 | 0.00 | 76 | 1012.1 |
| 20260506195050 | 73 | 319 | 5.0 | 13.0 | 0.00 | 0.00 | 0.00 | 76 | 1012.0 |
| 20260506194549 | 73 | 281 | 6.0 | 13.0 | 0.00 | 0.00 | 0.00 | 75 | 1012.0 |
| 20260506194050 | 75 | 344 | 5.0 | 13.0 | 0.00 | 0.00 | 0.00 | 74 | 1011.8 |
| 20260506193547 | 77 | 18 | 4.0 | 11.0 | 0.00 | 0.00 | 0.00 | 72 | 1011.7 |
| 20260506193053 | 80 | 298 | 1.0 | 5.0 | 0.00 | 0.00 | 0.00 | 73 | 1011.6 |
| 20260506192550 | 80 | 349 | 1.0 | 6.0 | 0.00 | 0.00 | 0.00 | 72 | 1011.5 |
| 20260506192050 | 81 | 9 | 0.0 | 7.0 | 0.00 | 0.00 | 0.00 | 71 | 1011.6 |
| 20260506191558 | 82 | 59 | 2.0 | 7.0 | 0.00 | 0.00 | 0.00 | 68 | 1011.5 |
| 20260506191053 | 83 | 69 | 1.0 | 7.0 | 0.00 | 0.00 | 0.00 | 70 | 1011.6 |
| 20260506190548 | 82 | 290 | 2.0 | 7.0 | 0.00 | 0.00 | 0.00 | 69 | 1011.7 |
| 20260506190055 | 81 | 360 | 2.0 | 4.0 | 0.00 | 0.00 | 0.00 | 71 | 1011.8 |
| 20260506185550 | 79 | 287 | 1.0 | 4.0 | 0.00 | 0.00 | 0.00 | 73 | 1011.8 |
| 20260506185050 | 79 | 51 | 1.0 | 5.0 | 0.00 | 0.00 | 0.00 | 73 | 1012.0 |
| 20260506184556 | 81 | 5 | 2.0 | 5.0 | 0.00 | 0.00 | 0.00 | 70 | 1012.0 |
| 20260506184050 | 82 | 55 | 1.0 | 8.0 | 0.00 | 0.00 | 0.00 | 70 | 1012.0 |
| 20260506183547 | 80 | 331 | 1.0 | 8.0 | 0.00 | 0.00 | 0.00 | 73 | 1011.8 |
| 20260506183055 | 80 | 140 | 3.0 | 8.0 | 0.00 | 0.00 | 0.00 | 71 | 1011.8 |
| 20260506182550 | 81 | 169 | 2.0 | 8.0 | 0.00 | 0.00 | 0.00 | 72 | 1011.9 |
| 20260506182050 | 80 | 100 | 1.0 | 5.0 | 0.00 | 0.00 | 0.00 | 72 | 1011.9 |
| 20260506181602 | 79 | 133 | 1.0 | 6.0 | 0.00 | 0.00 | 0.00 | 75 | 1011.9 |
| 20260506181050 | 79 | 167 | 2.0 | 6.0 | 0.00 | 0.00 | 0.00 | 74 | 1012.0 |
| 20260506180554 | 79 | 0 | 1.0 | 7.0 | 0.00 | 0.00 | 0.00 | 76 | 1011.9 |
| 20260506180054 | 79 | 47 | 1.0 | 7.0 | 0.00 | 0.00 | 0.00 | 73 | 1011.9 |
| 20260506175550 | 79 | 77 | 1.0 | 4.0 | 0.00 | 0.00 | 0.00 | 74 | 1011.9 |
| 20260506175052 | 78 | 103 | 0.0 | 5.0 | 0.00 | 0.00 | 0.00 | 75 | 1011.9 |
| 20260506174553 | 78 | 175 | 0.0 | 5.0 | 0.00 | 0.00 | 0.00 | 78 | 1011.9 |
| 20260506174050 | 77 | 107 | 1.0 | 4.0 | 0.00 | 0.00 | 0.00 | 74 | 1012.0 |
| 20260506173550 | 77 | 285 | 2.0 | 5.0 | 0.00 | 0.00 | 0.00 | 77 | 1012.0 |
| 20260506173120 | 76 | 14 | 2.0 | 5.0 | 0.00 | 0.00 | 0.00 | 75 | 1011.9 |
| 20260506172549 | 76 | 19 | 1.0 | 4.0 | 0.00 | 0.00 | 0.00 | 76 | 1012.1 |
| 20260506172053 | 75 | 0 | 1.0 | 4.0 | 0.00 | 0.00 | 0.00 | 79 | 1012.3 |
| 20260506171557 | 73 | 117 | 2.0 | 9.0 | 0.00 | 0.00 | 0.00 | 81 | 1012.2 |
| 20260506171050 | 72 | 254 | 1.0 | 9.0 | 0.00 | 0.00 | 0.00 | 84 | 1012.4 |
| 20260506170550 | 70 | 40 | 1.0 | 4.0 | 0.00 | 0.00 | 0.00 | 84 | 1012.4 |
| 20260506170105 | 70 | 69 | 1.0 | 4.0 | 0.00 | 0.00 | 0.00 | 84 | 1012.5 |
| 20260506165547 | 70 | 50 | 1.0 | 6.0 | 0.00 | 0.00 | 0.00 | 85 | 1012.5 |
| 20260506165050 | 69 | 0 | 1.0 | 9.0 | 0.00 | 0.00 | 0.00 | 87 | 1012.6 |
| 20260506164553 | 68 | 0 | 1.0 | 9.0 | 0.00 | 0.00 | 0.00 | 87 | 1012.6 |
| 20260506164050 | 68 | 11 | 2.0 | 8.0 | 0.00 | 0.00 | 0.00 | 87 | 1012.8 |
| 20260506163550 | 68 | 64 | 2.0 | 9.0 | 0.00 | 0.00 | 0.00 | 87 | 1012.9 |
| 20260506163059 | 68 | 11 | 2.0 | 9.0 | 0.00 | 0.00 | 0.00 | 85 | 1013.0 |
| 20260506162548 | 68 | 32 | 3.0 | 9.0 | 0.00 | 0.00 | 0.00 | 84 | 1013.0 |
| 20260506162050 | 69 | 35 | 3.0 | 13.0 | 0.00 | 0.00 | 0.00 | 83 | 1013.0 |
| 20260506161553 | 73 | 274 | 5.0 | 13.0 | 0.00 | 0.00 | 0.00 | 77 | 1013.0 |
| 20260506161050 | 76 | 28 | 0.0 | 2.0 | 0.00 | 0.00 | 0.00 | 86 | 1012.8 |
| 20260506160550 | 76 | 0 | 0.0 | 2.0 | 0.00 | 0.00 | 0.00 | 87 | 1012.7 |
| 20260506160052 | 76 | 37 | 0.0 | 3.0 | 0.00 | 0.00 | 0.00 | 86 | 1012.8 |
| 20260506155553 | 76 | 360 | 0.0 | 3.0 | 0.00 | 0.00 | 0.00 | 88 | 1012.7 |
| 20260506155053 | 76 | 0 | 0.0 | 2.0 | 0.00 | 0.00 | 0.00 | 88 | 1012.8 |
| 20260506154608 | 75 | 0 | 0.0 | 2.0 | 0.00 | 0.00 | 0.00 | 88 | 1012.6 |
| 20260506154051 | 75 | 0 | 0.0 | 2.0 | 0.00 | 0.00 | 0.00 | 89 | 1012.5 |
| 20260506153550 | 75 | 53 | 0.0 | 3.0 | 0.00 | 0.00 | 0.00 | 88 | 1012.5 |
| 20260506153054 | 75 | 0 | 0.0 | 3.0 | 0.00 | 0.00 | 0.00 | 88 | 1012.4 |
| 20260506152550 | 75 | 0 | 0.0 | 2.0 | 0.00 | 0.00 | 0.00 | 89 | 1012.1 |
| 20260506152048 | 75 | 0 | 0.0 | 3.0 | 0.00 | 0.00 | 0.00 | 89 | 1012.0 |
| 20260506151555 | 75 | 144 | 1.0 | 3.0 | 0.00 | 0.00 | 0.00 | 89 | 1011.7 |
| 20260506151050 | 75 | 0 | 0.0 | 2.0 | 0.00 | 0.00 | 0.00 | 89 | 1011.6 |
| 20260506150550 | 75 | 0 | 1.0 | 3.0 | 0.00 | 0.00 | 0.00 | 89 | 1011.4 |
| 20260506150051 | 75 | 0 | 0.0 | 3.0 | 0.00 | 0.00 | 0.00 | 90 | 1011.4 |
| 20260506145547 | 74 | 146 | 0.0 | 3.0 | 0.00 | 0.00 | 0.00 | 90 | 1011.4 |
| 20260506145047 | 74 | 0 | 0.0 | 3.0 | 0.00 | 0.00 | 0.00 | 90 | 1011.4 |
| 20260506144556 | 74 | 0 | 0.0 | 3.0 | 0.00 | 0.00 | 0.00 | 90 | 1011.4 |
| 20260506144050 | 74 | 0 | 0.0 | 4.0 | 0.00 | 0.00 | 0.00 | 90 | 1011.5 |
| 20260506143546 | 74 | 60 | 1.0 | 4.0 | 0.00 | 0.00 | 0.00 | 91 | 1011.2 |
| 20260506143051 | 74 | 140 | 0.0 | 3.0 | 0.00 | 0.00 | 0.00 | 91 | 1011.2 |
| 20260506142546 | 74 | 0 | 0.0 | 2.0 | 0.00 | 0.00 | 0.00 | 91 | 1011.1 |
| 20260506142045 | 74 | 0 | 0.0 | 1.0 | 0.00 | 0.00 | 0.00 | 91 | 1011.3 |
| 20260506141555 | 74 | 0 | 0.0 | 0.0 | 0.00 | 0.00 | 0.00 | 91 | 1011.4 |
| 20260506141051 | 74 | 0 | 0.0 | 1.0 | 0.00 | 0.00 | 0.00 | 91 | 1011.3 |
| 20260506140547 | 74 | 0 | 0.0 | 1.0 | 0.00 | 0.00 | 0.00 | 91 | 1011.3 |
| 20260506140053 | 74 | 24 | 0.0 | 3.0 | 0.00 | 0.00 | 0.00 | 91 | 1011.3 |
| 20260506135546 | 74 | 0 | 0.0 | 6.0 | 0.00 | 0.00 | 0.00 | 91 | 1011.0 |
| 20260506135046 | 74 | 63 | 0.0 | 6.0 | 0.00 | 0.00 | 0.00 | 91 | 1010.6 |
| 20260506134547 | 74 | 0 | 1.0 | 6.0 | 0.00 | 0.00 | 0.00 | 92 | 1010.4 |
| 20260506134050 | 74 | 156 | 0.0 | 4.0 | 0.00 | 0.00 | 0.00 | 92 | 1010.3 |
| 20260506133548 | 74 | 0 | 0.0 | 5.0 | 0.00 | 0.00 | 0.00 | 92 | 1010.3 |
| 20260506133109 | 73 | 59 | 2.0 | 5.0 | 0.00 | 0.00 | 0.00 | 92 | 1010.1 |
| 20260506132547 | 73 | 111 | 2.0 | 5.0 | 0.00 | 0.00 | 0.00 | 92 | 1010.2 |
| 20260506132047 | 73 | 116 | 1.0 | 6.0 | 0.00 | 0.00 | 0.00 | 92 | 1010.1 |
| 20260506131553 | 73 | 0 | 0.0 | 6.0 | 0.00 | 0.00 | 0.00 | 92 | 1010.2 |
| 20260506131046 | 73 | 109 | 1.0 | 3.0 | 0.00 | 0.00 | 0.00 | 92 | 1010.2 |
| 20260506130546 | 73 | 15 | 0.0 | 4.0 | 0.00 | 0.00 | 0.00 | 92 | 1010.0 |
| 20260506130119 | 73 | 0 | 1.0 | 4.0 | 0.00 | 0.00 | 0.00 | 92 | 1010.0 |
| 20260506125545 | 73 | 84 | 0.0 | 4.0 | 0.00 | 0.00 | 0.00 | 92 | 1009.9 |
| 20260506125046 | 73 | 0 | 0.0 | 2.0 | 0.00 | 0.00 | 0.00 | 92 | 1010.0 |
| 20260506124550 | 73 | 0 | 0.0 | 2.0 | 0.00 | 0.00 | 0.00 | 92 | 1009.8 |
| 20260506124045 | 73 | 0 | 0.0 | 2.0 | 0.00 | 0.00 | 0.00 | 92 | 1009.8 |
| 20260506123547 | 73 | 142 | 0.0 | 2.0 | 0.00 | 0.00 | 0.00 | 92 | 1009.9 |
| 20260506123053 | 73 | 149 | 0.0 | 2.0 | 0.00 | 0.00 | 0.00 | 92 | 1009.9 |
| 20260506122545 | 73 | 0 | 0.0 | 2.0 | 0.00 | 0.00 | 0.00 | 92 | 1009.9 |
| 20260506122045 | 73 | 0 | 0.0 | 2.0 | 0.00 | 0.00 | 0.00 | 92 | 1009.9 |
| 20260506121554 | 73 | 0 | 0.0 | 1.0 | 0.00 | 0.00 | 0.00 | 92 | 1009.9 |
| 20260506121048 | 73 | 0 | 0.0 | 1.0 | 0.00 | 0.00 | 0.00 | 92 | 1010.0 |
| 20260506120545 | 73 | 0 | 0.0 | 1.0 | 0.00 | 0.00 | 0.00 | 92 | 1009.9 |
| 20260506120052 | 73 | 0 | 0.0 | 1.0 | 0.00 | 0.00 | 0.00 | 91 | 1009.9 |
| 20260506115546 | 73 | 0 | 0.0 | 1.0 | 0.00 | 0.00 | 0.00 | 91 | 1009.9 |
| 20260506115047 | 73 | 0 | 0.0 | 2.0 | 0.00 | 0.00 | 0.00 | 91 | 1009.8 |
| 20260506114627 | 73 | 0 | 0.0 | 2.0 | 0.00 | 0.00 | 0.00 | 91 | 1009.7 |
| 20260506114047 | 73 | 0 | 0.0 | 2.0 | 0.00 | 0.00 | 0.00 | 91 | 1009.6 |
| 20260506113549 | 73 | 0 | 0.0 | 2.0 | 0.00 | 0.00 | 0.00 | 91 | 1009.7 |
| 20260506113053 | 73 | 0 | 0.0 | 2.0 | 0.00 | 0.00 | 0.00 | 91 | 1009.7 |
| 20260506112548 | 73 | 0 | 0.0 | 3.0 | 0.00 | 0.00 | 0.00 | 91 | 1009.7 |
| 20260506112053 | 73 | 0 | 0.0 | 4.0 | 0.00 | 0.00 | 0.00 | 91 | 1009.7 |
| 20260506111552 | 73 | 182 | 1.0 | 4.0 | 0.00 | 0.00 | 0.00 | 91 | 1009.5 |
| 20260506111050 | 73 | 111 | 1.0 | 4.0 | 0.00 | 0.00 | 0.00 | 91 | 1009.6 |
| 20260506110550 | 73 | 165 | 1.0 | 4.0 | 0.00 | 0.00 | 0.00 | 91 | 1009.6 |
| 20260506110058 | 73 | 170 | 1.0 | 4.0 | 0.00 | 0.00 | 0.00 | 91 | 1009.5 |
| 20260506105548 | 73 | 161 | 1.0 | 5.0 | 0.00 | 0.00 | 0.00 | 91 | 1009.5 |
| 20260506105050 | 73 | 188 | 1.0 | 5.0 | 0.00 | 0.00 | 0.00 | 91 | 1009.5 |
| 20260506104618 | 73 | 177 | 1.0 | 5.0 | 0.00 | 0.00 | 0.00 | 91 | 1009.5 |
| 20260506104048 | 73 | 119 | 1.0 | 7.0 | 0.00 | 0.00 | 0.00 | 91 | 1009.5 |
| 20260506103549 | 73 | 179 | 3.0 | 7.0 | 0.00 | 0.00 | 0.00 | 91 | 1009.5 |
| 20260506103052 | 73 | 0 | 1.0 | 4.0 | 0.00 | 0.00 | 0.00 | 91 | 1009.5 |
| 20260506102551 | 73 | 181 | 2.0 | 5.0 | 0.00 | 0.00 | 0.00 | 91 | 1009.5 |
| 20260506102051 | 73 | 111 | 2.0 | 5.0 | 0.00 | 0.00 | 0.00 | 91 | 1009.3 |
| 20260506101551 | 73 | 154 | 2.0 | 7.0 | 0.00 | 0.00 | 0.00 | 91 | 1009.4 |
| 20260506101050 | 73 | 186 | 3.0 | 7.0 | 0.00 | 0.00 | 0.00 | 90 | 1009.3 |
| 20260506100550 | 74 | 147 | 2.0 | 6.0 | 0.00 | 0.00 | 0.00 | 90 | 1009.4 |
| 20260506100053 | 74 | 166 | 2.0 | 5.0 | 0.00 | 0.00 | 0.00 | 90 | 1009.4 |
| 20260506095554 | 74 | 181 | 1.0 | 6.0 | 0.00 | 0.00 | 0.00 | 90 | 1009.3 |
| 20260506095050 | 74 | 101 | 1.0 | 6.0 | 0.00 | 0.00 | 0.00 | 90 | 1009.3 |
| 20260506094554 | 74 | 158 | 3.0 | 7.0 | 0.00 | 0.00 | 0.00 | 90 | 1009.3 |
| 20260506094046 | 74 | 196 | 3.0 | 8.0 | 0.00 | 0.00 | 0.00 | 90 | 1009.2 |
| 20260506093550 | 74 | 172 | 3.0 | 8.0 | 0.00 | 0.00 | 0.00 | 90 | 1009.1 |
| 20260506093049 | 74 | 170 | 3.0 | 8.0 | 0.00 | 0.00 | 0.00 | 90 | 1009.0 |
| 20260506092548 | 74 | 132 | 2.0 | 7.0 | 0.00 | 0.00 | 0.00 | 90 | 1008.9 |
| 20260506092050 | 74 | 165 | 3.0 | 7.0 | 0.00 | 0.00 | 0.00 | 90 | 1009.0 |
| 20260506091556 | 74 | 190 | 3.0 | 10.0 | 0.00 | 0.00 | 0.00 | 90 | 1009.0 |
| 20260506091050 | 74 | 159 | 4.0 | 10.0 | 0.00 | 0.00 | 0.00 | 90 | 1009.0 |
| 20260506090549 | 74 | 174 | 2.0 | 7.0 | 0.00 | 0.00 | 0.00 | 90 | 1009.0 |
| 20260506090052 | 74 | 157 | 3.0 | 7.0 | 0.00 | 0.00 | 0.00 | 90 | 1008.9 |
| 20260506085550 | 74 | 177 | 3.0 | 8.0 | 0.00 | 0.00 | 0.00 | 90 | 1008.9 |
| 20260506085050 | 74 | 162 | 2.0 | 8.0 | 0.00 | 0.00 | 0.00 | 90 | 1009.0 |
| 20260506084550 | 74 | 178 | 2.0 | 8.0 | 0.00 | 0.00 | 0.00 | 90 | 1008.9 |
| 20260506084050 | 74 | 144 | 2.0 | 7.0 | 0.00 | 0.00 | 0.00 | 90 | 1008.8 |
| 20260506083550 | 74 | 178 | 3.0 | 9.0 | 0.00 | 0.00 | 0.00 | 90 | 1009.0 |
| 20260506083055 | 74 | 204 | 4.0 | 9.0 | 0.00 | 0.00 | 0.00 | 90 | 1009.0 |
| 20260506082547 | 74 | 156 | 3.0 | 11.0 | 0.00 | 0.00 | 0.00 | 90 | 1008.9 |
| 20260506082050 | 74 | 207 | 4.0 | 11.0 | 0.00 | 0.00 | 0.00 | 90 | 1009.0 |
| 20260506081600 | 74 | 169 | 4.0 | 8.0 | 0.00 | 0.00 | 0.00 | 90 | 1008.9 |
| 20260506081050 | 74 | 167 | 4.0 | 9.0 | 0.00 | 0.00 | 0.00 | 90 | 1008.9 |
| 20260506080550 | 74 | 188 | 3.0 | 9.0 | 0.00 | 0.00 | 0.00 | 90 | 1009.1 |
| 20260506073053 | 74 | 139 | 4.0 | 9.0 | 0.00 | 0.00 | 0.00 | 90 | 1009.2 |
| 20260506072552 | 74 | 158 | 4.0 | 8.0 | 0.00 | 0.00 | 0.00 | 89 | 1009.3 |
| 20260506072050 | 74 | 149 | 2.0 | 7.0 | 0.00 | 0.00 | 0.00 | 89 | 1009.5 |
| 20260506071610 | 74 | 146 | 2.0 | 8.0 | 0.00 | 0.00 | 0.00 | 89 | 1009.6 |
| 20260506071047 | 74 | 161 | 3.0 | 14.0 | 0.00 | 0.00 | 0.00 | 89 | 1009.5 |
| 20260506070550 | 74 | 184 | 5.0 | 14.0 | 0.00 | 0.00 | 0.00 | 89 | 1009.5 |
| 20260506062050 | 74 | 161 | 4.0 | 14.0 | 0.00 | 0.00 | 0.00 | 89 | 1009.5 |
| 20260506061558 | 74 | 168 | 6.0 | 14.0 | 0.00 | 0.00 | 0.00 | 89 | 1009.6 |
| 20260506061050 | 74 | 166 | 5.0 | 13.0 | 0.00 | 0.00 | 0.00 | 89 | 1009.6 |
| 20260506060553 | 74 | 162 | 4.0 | 10.0 | 0.00 | 0.00 | 0.00 | 89 | 1009.6 |
| 20260506051050 | 75 | 169 | 3.0 | 11.0 | 0.00 | 0.00 | 0.00 | 88 | 1009.8 |
| 20260506050547 | 75 | 144 | 5.0 | 9.0 | 0.00 | 0.00 | 0.00 | 88 | 1009.8 |
| 20260506045052 | 75 | 199 | 4.0 | 10.0 | 0.00 | 0.00 | 0.00 | 88 | 1009.7 |
| 20260506044608 | 75 | 167 | 3.0 | 9.0 | 0.00 | 0.00 | 0.00 | 88 | 1009.7 |
| 20260506044047 | 75 | 153 | 4.0 | 9.0 | 0.00 | 0.00 | 0.00 | 88 | 1009.6 |
| 20260506043551 | 75 | 168 | 3.0 | 9.0 | 0.00 | 0.00 | 0.00 | 88 | 1009.7 |
| 20260506043056 | 75 | 233 | 3.0 | 10.0 | 0.00 | 0.00 | 0.00 | 88 | 1009.6 |
| 20260506042550 | 75 | 132 | 3.0 | 10.0 | 0.00 | 0.00 | 0.00 | 88 | 1009.5 |
| 20260506042049 | 75 | 126 | 4.0 | 11.0 | 0.00 | 0.00 | 0.00 | 88 | 1009.5 |
| 20260506041556 | 75 | 114 | 4.0 | 11.0 | 0.00 | 0.00 | 0.00 | 88 | 1009.5 |
| 20260506041050 | 75 | 142 | 4.0 | 11.0 | 0.00 | 0.00 | 0.00 | 88 | 1009.4 |
| 20260506040548 | 75 | 169 | 3.0 | 11.0 | 0.00 | 0.00 | 0.00 | 88 | 1009.3 |
| 20260506040054 | 76 | 186 | 4.0 | 9.0 | 0.00 | 0.00 | 0.00 | 88 | 1009.3 |
| 20260506035549 | 76 | 163 | 3.0 | 9.0 | 0.00 | 0.00 | 0.00 | 88 | 1009.3 |
| 20260506035048 | 76 | 169 | 4.0 | 9.0 | 0.00 | 0.00 | 0.00 | 88 | 1009.1 |
| 20260506034600 | 76 | 150 | 2.0 | 8.0 | 0.00 | 0.00 | 0.00 | 88 | 1009.1 |
| 20260506034046 | 75 | 148 | 3.0 | 8.0 | 0.00 | 0.00 | 0.00 | 88 | 1009.0 |
| 20260506033546 | 75 | 169 | 2.0 | 6.0 | 0.00 | 0.00 | 0.00 | 89 | 1008.9 |
| 20260506033054 | 75 | 163 | 1.0 | 5.0 | 0.00 | 0.00 | 0.00 | 88 | 1009.0 |
| 20260506032548 | 75 | 159 | 1.0 | 5.0 | 0.00 | 0.00 | 0.00 | 88 | 1008.9 |
| 20260506032046 | 75 | 157 | 1.0 | 7.0 | 0.00 | 0.00 | 0.00 | 88 | 1008.8 |
| 20260506031555 | 75 | 143 | 2.0 | 7.0 | 0.00 | 0.00 | 0.00 | 88 | 1008.7 |
| 20260506031051 | 75 | 135 | 2.0 | 7.0 | 0.00 | 0.00 | 0.00 | 87 | 1008.6 |
| 20260506030549 | 75 | 139 | 1.0 | 6.0 | 0.00 | 0.00 | 0.00 | 87 | 1008.6 |
| 20260506030051 | 75 | 139 | 2.0 | 6.0 | 0.00 | 0.00 | 0.00 | 87 | 1008.5 |
| 20260506025545 | 75 | 141 | 2.0 | 5.0 | 0.00 | 0.00 | 0.00 | 87 | 1008.4 |
| 20260506025048 | 75 | 65 | 1.0 | 5.0 | 0.00 | 0.00 | 0.00 | 86 | 1008.5 |
| 20260506024554 | 76 | 145 | 2.0 | 5.0 | 0.00 | 0.00 | 0.00 | 86 | 1008.4 |
| 20260506024045 | 76 | 126 | 0.0 | 5.0 | 0.00 | 0.00 | 0.00 | 86 | 1008.3 |
| 20260506023547 | 76 | 0 | 1.0 | 6.0 | 0.00 | 0.00 | 0.00 | 85 | 1008.2 |
| 20260506023055 | 76 | 145 | 1.0 | 6.0 | 0.00 | 0.00 | 0.00 | 85 | 1008.2 |
| 20260506022545 | 76 | 173 | 1.0 | 6.0 | 0.00 | 0.00 | 0.00 | 85 | 1008.1 |
| 20260506022045 | 76 | 88 | 0.0 | 6.0 | 0.00 | 0.00 | 0.00 | 85 | 1007.9 |
| 20260506021558 | 76 | 129 | 2.0 | 6.0 | 0.00 | 0.00 | 0.00 | 85 | 1007.8 |
| 20260506021048 | 76 | 149 | 2.0 | 5.0 | 0.00 | 0.00 | 0.00 | 85 | 1007.6 |
| 20260506020547 | 76 | 132 | 1.0 | 4.0 | 0.00 | 0.00 | 0.00 | 84 | 1007.5 |
| 20260506020052 | 76 | 135 | 1.0 | 4.0 | 0.00 | 0.00 | 0.00 | 84 | 1007.6 |
| 20260506015547 | 77 | 120 | 1.0 | 4.0 | 0.00 | 0.00 | 0.00 | 84 | 1007.5 |
| 20260506015046 | 77 | 137 | 0.0 | 4.0 | 0.00 | 0.00 | 0.00 | 83 | 1007.4 |
| 20260506014554 | 77 | 131 | 1.0 | 4.0 | 0.00 | 0.00 | 0.00 | 83 | 1007.4 |
| 20260506014049 | 77 | 152 | 1.0 | 4.0 | 0.00 | 0.00 | 0.00 | 82 | 1007.4 |
| 20260506013548 | 77 | 0 | 0.0 | 4.0 | 0.00 | 0.00 | 0.00 | 82 | 1007.2 |
| 20260506013050 | 77 | 0 | 0.0 | 2.0 | 0.00 | 0.00 | 0.00 | 82 | 1007.2 |
| 20260506012547 | 77 | 0 | 0.0 | 2.0 | 0.00 | 0.00 | 0.00 | 81 | 1007.2 |
| 20260506012048 | 78 | 0 | 0.0 | 5.0 | 0.00 | 0.00 | 0.00 | 81 | 1007.3 |
| 20260506011554 | 78 | 114 | 1.0 | 5.0 | 0.00 | 0.00 | 0.00 | 80 | 1007.2 |
| 20260506011048 | 78 | 150 | 1.0 | 3.0 | 0.00 | 0.00 | 0.00 | 80 | 1007.1 |
| 20260506010550 | 78 | 0 | 0.0 | 2.0 | 0.00 | 0.00 | 0.00 | 79 | 1007.3 |
| 20260506010057 | 79 | 0 | 0.0 | 1.0 | 0.00 | 0.00 | 0.00 | 77 | 1007.3 |
| 20260506005547 | 80 | 0 | 0.0 | 3.0 | 0.00 | 0.00 | 0.00 | 77 | 1007.2 |
| 20260506005047 | 80 | 0 | 0.0 | 3.0 | 0.00 | 0.00 | 0.00 | 76 | 1007.2 |
| 20260506004552 | 80 | 151 | 0.0 | 6.0 | 0.00 | 0.00 | 0.00 | 76 | 1007.2 |
| 20260506004047 | 80 | 173 | 2.0 | 7.0 | 0.00 | 0.00 | 0.00 | 75 | 1007.2 |
| 20260506003552 | 81 | 157 | 3.0 | 7.0 | 0.00 | 0.00 | 0.00 | 74 | 1007.0 |
| 20260506003059 | 81 | 159 | 2.0 | 6.0 | 0.00 | 0.00 | 0.00 | 74 | 1007.1 |
| 20260506002550 | 81 | 150 | 1.0 | 5.0 | 0.00 | 0.00 | 0.00 | 74 | 1007.2 |
| 20260506002049 | 81 | 153 | 2.0 | 8.0 | 0.00 | 0.00 | 0.00 | 74 | 1007.1 |
| 20260506001604 | 82 | 128 | 3.0 | 8.0 | 0.00 | 0.00 | 0.00 | 73 | 1007.1 |
| 20260506001051 | 82 | 134 | 1.0 | 7.0 | 0.00 | 0.00 | 0.00 | 73 | 1007.0 |
| 20260506000547 | 82 | 166 | 1.0 | 7.0 | 0.00 | 0.00 | 0.00 | 73 | 1006.9 |
| 20260506000055 | 82 | 182 | 2.0 | 7.0 | 0.00 | 0.00 | 0.00 | 72 | 1006.9 |
| 20260505235547 | 82 | 0 | 2.0 | 5.0 | 0.00 | 0.00 | 0.00 | 72 | 1006.9 |
| 20260505235048 | 82 | 188 | 2.0 | 5.0 | 0.00 | 0.00 | 0.00 | 72 | 1007.0 |
| 20260505234607 | 82 | 159 | 2.0 | 6.0 | 0.00 | 0.00 | 0.00 | 72 | 1007.0 |
| 20260505234047 | 82 | 131 | 3.0 | 6.0 | 0.00 | 0.00 | 0.00 | 71 | 1006.9 |
| 20260505233551 | 82 | 153 | 3.0 | 6.0 | 0.00 | 0.00 | 0.00 | 72 | 1006.9 |
| 20260505233052 | 82 | 157 | 2.0 | 6.0 | 0.00 | 0.00 | 0.00 | 71 | 1006.8 |
| 20260505232550 | 82 | 164 | 2.0 | 8.0 | 0.00 | 0.00 | 0.00 | 72 | 1007.0 |
| 20260505232050 | 82 | 154 | 2.0 | 8.0 | 0.00 | 0.00 | 0.00 | 72 | 1006.8 |
| 20260505231553 | 82 | 172 | 2.0 | 10.0 | 0.00 | 0.00 | 0.00 | 72 | 1006.9 |
| 20260505231051 | 82 | 180 | 3.0 | 10.0 | 0.00 | 0.00 | 0.00 | 72 | 1006.9 |
| 20260505230547 | 83 | 151 | 5.0 | 10.0 | 0.00 | 0.00 | 0.00 | 69 | 1006.9 |
| 20260505230052 | 83 | 235 | 3.0 | 10.0 | 0.00 | 0.00 | 0.00 | 70 | 1006.8 |
| 20260505225553 | 83 | 172 | 4.0 | 10.0 | 0.00 | 0.00 | 0.00 | 70 | 1006.7 |
| 20260505225050 | 83 | 123 | 4.0 | 9.0 | 0.00 | 0.00 | 0.00 | 69 | 1006.7 |
| 20260505224549 | 83 | 162 | 3.0 | 9.0 | 0.00 | 0.00 | 0.00 | 70 | 1006.7 |